Weather History for Wright-Patt AFB, OH

Change the Weather History Date:

Wednesday, December 5, 2012

  Actual Average Record
Temperature  
Mean Temperature 34 °F -  
Max Temperature 41 °F 43 °F 68 °F (2001)
Min Temperature 27 °F 28 °F 14 °F (2008)
Degree Days  
Heating Degree Days 31    
Moisture  
Dew Point 30 °F    
Average Humidity 80    
Maximum Humidity 100    
Minimum Humidity 57    
Precipitation  
Precipitation 0.00 in - - ()
Sea Level Pressure  
Sea Level Pressure 30.33 in    
Wind  
Wind Speed 4 mph (NNE)    
Max Wind Speed 13 mph    
Max Gust Speed -    
Visibility 10 miles    
Events Fog    
Averages and records for this station are not official NWS values.
T = Trace of Precipitation, MM = Missing Value Source: NWS Daily Summary

Daily Weather History Graph

Daily Weather History Graph

Search for Another Location

Airport:

Trip Planner

Search our weather history database for the weather conditions in past years. The results will help you decide how hot, cold, wet, or windy it might be!

Date:

Astronomy

Dec. 05, 2012 Rise Set
Actual Time 7:42 AM EST 5:11 PM EST
Civil Twilight 7:12 AM EST 5:41 PM EST
Nautical Twilight 6:38 AM EST 6:15 PM EST
Astronomical Twilight 6:06 AM EST 6:47 PM EST
Moon 11:59 PM EST (12/5) 12:06 PM EST (12/5)
Length of Visible Light 10h 28m
Length of Day
9h 28m
Waning Gibbous, 60% of the Moon is Illuminated
Dec 5
Waning Gibbous
Dec 6
Last Quarter
Dec 13
New
Dec 20
First Quarter
Dec 28
Full

Hourly Weather History & Observations

Time (EST) Temp. Windchill Dew Point Humidity Pressure Visibility Wind Dir Wind Speed Gust Speed Precip Events Conditions
12:55 AM 39.4 °F 37.2 °F 39.2 °F 99% 30.21 in 10.0 mi South 3.5 mph - N/A   Partly Cloudy
1:55 AM 38.7 °F - 38.3 °F 99% 30.22 in 8.0 mi Calm Calm - N/A   Clear
2:55 AM 37.6 °F - 37.2 °F 99% 30.25 in 10.0 mi Calm Calm - N/A   Clear
3:55 AM 35.1 °F - 34.9 °F 99% 30.27 in 10.0 mi Calm Calm - N/A   Clear
4:55 AM 35.1 °F - 34.9 °F 99% 30.27 in 9.0 mi Calm Calm - N/A Fog Shallow Fog
5:55 AM 32.2 °F - 32.0 °F 99% 30.29 in 7.0 mi Calm Calm - N/A Fog Patches of Fog
6:00 AM 32.0 °F - 32.0 °F 100% 30.29 in 4.0 mi Calm Calm - N/A   Clear
6:55 AM 36.9 °F 30.7 °F 36.7 °F 99% 30.31 in 10.0 mi NNW 8.1 mph - N/A Fog Shallow Fog
7:55 AM 37.6 °F 31.0 °F 33.1 °F 84% 30.34 in 10.0 mi NNW 9.2 mph - N/A   Mostly Cloudy
9:55 AM 37.9 °F 30.0 °F 30.6 °F 75% 30.38 in 10.0 mi North 12.7 mph - N/A   Partly Cloudy
10:55 AM 38.5 °F 33.4 °F 30.6 °F 73% 30.39 in 10.0 mi North 6.9 mph - N/A   Scattered Clouds
11:55 AM 40.6 °F 34.8 °F 30.0 °F 66% 30.39 in 10.0 mi NNE 9.2 mph - N/A   Scattered Clouds
12:55 PM 40.6 °F 35.4 °F 27.7 °F 60% 30.37 in 10.0 mi North 8.1 mph - N/A   Scattered Clouds
1:55 PM 41.5 °F 37.1 °F 27.1 °F 57% 30.36 in 10.0 mi North 6.9 mph - N/A   Mostly Cloudy
2:55 PM 41.2 °F 36.6 °F 27.3 °F 58% 30.36 in 10.0 mi North 6.9 mph - N/A   Mostly Cloudy
3:55 PM 40.6 °F 35.4 °F 26.6 °F 57% 30.36 in 10.0 mi NNE 8.1 mph - N/A   Mostly Cloudy
4:55 PM 38.8 °F 33.8 °F 27.1 °F 63% 30.36 in 10.0 mi NNE 6.9 mph - N/A   Scattered Clouds
5:55 PM 35.4 °F 29.7 °F 27.3 °F 72% 30.38 in 10.0 mi NNE 6.9 mph - N/A   Scattered Clouds
6:55 PM 32.7 °F 25.0 °F 25.2 °F 74% 30.38 in 10.0 mi NE 9.2 mph - N/A   Partly Cloudy
7:55 PM 31.6 °F 24.4 °F 24.1 °F 74% 30.37 in 10.0 mi ENE 8.1 mph - N/A   Clear
8:55 PM 30.9 °F 24.3 °F 23.9 °F 75% 30.37 in 10.0 mi NE 6.9 mph - N/A   Clear
9:55 PM 30.0 °F 23.2 °F 23.9 °F 78% 30.35 in 10.0 mi NE 6.9 mph - N/A   Clear
10:55 PM 27.7 °F 21.3 °F 21.7 °F 78% 30.35 in 10.0 mi NE 5.8 mph - N/A   Clear
11:55 PM 28.4 °F 23.3 °F 22.1 °F 77% 30.34 in 10.0 mi East 4.6 mph - N/A   Partly Cloudy